Regional Weather Roundup
Issued by NWS Charleston, SC

Current Version | Previous Version | Text Only | Print | Product List | Glossary Off
Versions: 1 2 3 4 5 6 7 8 9 10 11 12 13 14 15 16 17 18 19 20 21 22 23 24 25 26 27 28 29 30 31 32 33 34 35 36 37 38 39 40 41 42 43 44 45 46 47 48 49 50
000 ASUS42 KCHS 232328 RWRCHS REGIONAL WEATHER ROUNDUP NATIONAL WEATHER SERVICE CHARLESTON SC 700 PM EDT MON MAY 23 2016 NOTE: "FAIR" INDICATES FEW OR NO CLOUDS BELOW 12,000 FEET WITH NO SIGNIFICANT WEATHER AND/OR OBSTRUCTIONS TO VISIBILITY. NOT ALL STATIONS ARE QUALITY CONTROLLED. USE DATA WITH CAUTION... ESPECIALLY DEWPOINT OBSERVATIONS. SCZ027-030-031-034>040-042>050-240000- ...SOUTHEAST SOUTH CAROLINA... CITY SKY/WX TMP DP RH WIND PRES REMARKS N CHARLESTON MOSUNNY 76 50 40 N10 29.96R WATERFRONT PRK N/A 77 57 50 N12 29.93S MOUNT PLEASANT FAIR 75 52 43 N7 29.97R JOHNS ISLAND FAIR 77 52 41 N8 29.96R PINOPOLIS N/A 79 54 41 N7 29.89R MONCKS CORNER FAIR 72 46 40 N3 29.98R SUMMERVILLE FAIR 75 54 46 N6 29.98R BEAUFORT MCAS SUNNY 79 51 37 N7 29.95R BEAUFORT ARPT FAIR 79 46 31 N5 29.95R HILTON HEAD IS MOSUNNY 81 59 47 MISG 29.96R WALTERBORO PTCLDY 77 52 41 CALM 29.98R ALLENDALE FAIR 75 52 43 N3 29.96R ...SOUTHERN MIDLANDS AND PEE DEE... CITY SKY/WX TMP DP RH WIND PRES REMARKS GEORGETOWN FAIR 70 52 52 NW3 29.98S KINGSTREE MOCLDY 70 48 46 NW5 29.98S ORANGEBURG SUNNY 75 51 43 N8 29.98R BARNWELL FAIR 79 55 44 CALM 29.98R AIKEN FAIR 73 50 43 N7 30.02R MANNING FAIR 70 54 56 NE3 29.98S COLUMBIA MOSUNNY 77 49 37 N5 29.98R SUMTER PTSUNNY 73 52 48 N8 29.97R FLORENCE SUNNY 71 52 50 N8 29.98S MYRTLE BEACH NOT AVBL N MYRTLE BEACH CLOUDY 69 54 58 N5 29.96R $$ GAZ063-065-086>088-099>101-113>116-118-119-134>141-150-240000- ...SOUTHEAST GEORGIA... CITY SKY/WX TMP DP RH WIND PRES REMARKS SAVANNAH ARPT MOSUNNY 81 45 28 NW8 29.95R HUNTER AAF SUNNY 77 60 55 SE7 29.93R FORT STEWART SUNNY 82 46 28 N3 29.92R STATESBORO SUNNY 80 53 39 N5 29.95S SYLVANIA CLEAR 81 51 35 NE3 29.96S CLAXTON FAIR 79 58 48 CALM 29.95S ...CSRA...CENTRAL AND FAR SOUTHEAST GEORGIA... CITY SKY/WX TMP DP RH WIND PRES REMARKS THOMSON SUNNY 79 53 40 E5 30.00S AUGUSTA-BUSH MOSUNNY 79 50 36 NE6 29.95R AUGUSTA-DANIEL SUNNY 80 48 32 N7 29.97R SWAINSBORO FAIR 81 46 30 CALM 29.96S VIDALIA SUNNY 81 50 34 CALM 29.95S EASTMAN FAIR 82 48 30 CALM 29.97S HAZLEHURST FAIR 82 47 29 CALM 29.94S ALMA MOSUNNY 83 48 29 CALM 29.94R WAYCROSS MOSUNNY 80 54 40 N6 29.94S JESUP FAIR 77 48 36 N5 29.95R BAXLEY FAIR 82 46 28 NE6 29.94S BRUNSWICK MOSUNNY 82 57 42 SE5 29.95S SAINT SIMONS SUNNY 78 55 44 SE8 29.94S $$ SCZ027-028-034-036>038-045-046-048>050-GAZ119-141-240000- ...LAKE AND SUPPLEMENTAL COASTAL OBSERVATIONS... STATION/POSITION TIME TEMP WIND PRES WAVE SWELL AIR SEA DIR/SP/G HT/PER HT/PER/DIR (UTC) (F) (DEG/KT/KT) (MB) (FT/S) (FT/S/D) WINYAH BAY 2200 72 310/ 7 1014.0S LAKE MURRAY 2200 74 30/ 3/ 5 1014.6S ACE BASIN NERRS 2200 81 320/ 3 1014.0S FORT PULASKI 2300 76 1014.6R SAPELO ISLAND 2300 80 130/ 5 1014.0S $$ ANZ835-935-AMZ111-154-330-350-352-354-370-450-454-472-240000- ...C-MAN AND BUOY OBSERVATIONS... STATION/POSITION TIME TEMP WIND PRES WAVE SWELL AIR SEA DIR/SP/G HT/PER HT/PER/DIR (UTC) (F) (DEG/KT/KT) (MB) (FT/S) (FT/S/D) BUOY 41004 2250 71 76 30/ 8/ 10 1014.3R 2/ 9 2/ 9 BUOY 41008 NOT AVBL FOLLY BEACH CMAN 2300 75 10/ 9/ 11 1014.7R CAPERS NEARSHORE 2308 74 75 10/ 10/ 14 1014.5R FRIPP NEARSHORE 2308 74 76 190/ 8/ 8 1013.7R STATION/POSITION TIME TEMP WIND PRES WAVE SWELL AIR SEA DIR/SP/G HT/PER HT/PER/DIR (UTC) (F) (DEG/KT/KT) (MB) (FT/S) (FT/S/D) 5E ST. MARYS GA 2221 78 N/A 2/ 9 FRYING PAN BUOY 2300 71 77 300/ 16/ 21 1013.6R BUOY 41025 2250 61 66 360/ 12/ 14 1012.7R 4/ 9 3/ 90/ 9 CAPE LOOKOUT NC 2300 64 340/ 11/ 14 1013.3R BUOY 41002 2250 74 77 290/ 10/ 14 1013.5R 4/ 7 5/ 10/ 7 BUOY 41010 2220 78 80 340/ 6/ 8 1013.9R ST AUGUSTINE FL 2300 77 81 90/ 11/ 12 1014.8S $$

USA.gov is the U.S. government's official web portal to all federal, state and local government web resources and services.